Airfield :
LOGIN :

Register | Disclaimer

   EN    FR    IT 

 










Legend :    VFR   Marginal VFR   IFR   Intensive IFR   Very Intensive IFR
Visi :
Ceiling :
>= 8 km
>= 3000ft
5 to 8 km
1000 to 3000 ft
1500m to 5 km
500 to 1000 ft
800 to 1500m
200 to 500 ft
< 800m
< 200 ft
Symbols :   Thunderstorms  Fog  Heavy snow  Heavy precipitations  Wind > 20 kt
SIGMETs :     Misc.  Thunderstorms  Icing  Turbulence  Mountain Waves  Volcanic Ashes







- Airport Elevation : 1989 ft
- IATA code : KLV


LKKV - Karlovy Vary

CURRENT METAR :
  • 191100Z 26007KT 220V290 9999 BKN044 06/M00 Q1018

EXPIRED METARs :
  • 191030Z 25008KT 220V280 9999 SCT046 06/M00 Q1018
  • 191000Z 30004KT 250V340 CAVOK 05/M01 Q1018
  • 190930Z 32004KT 280V350 CAVOK 04/M01 Q1018
  • 190900Z 32003KT 280V350 CAVOK 03/M01 Q1018
  • 190830Z VRB02KT CAVOK 01/M03 Q1017

TAF TAF LKKV
Valid from the 19 at 12:00 until the 20 at 18:00 UTC


191100Z 1912/2018 27008KT 9999 BKN035
TEMPO 1912/1918 30010G20KT
BECMG 1918/1921 26005KT CAVOK
TEMPO 1921/2003 3000 BR MIFG
TEMPO 2012/2016 29008KT 9999 BKN030
No reported NOTAMs for that airfield.



MET'MAP, your aeronautical weather chart ! - Copyright ORBIFLY December 2007 - Disclaimer

ORBIFLY MET'MAP TEAM :

Programming & Development : Alexandra Zaïnal
Concept & Development : Baudouin d'Aumeries
Co-Development & Prog : Marc-Olivier Méhu
Technical & hardware support : Manuel Goepfert

Contact : metmap@orbifly.com




SOURCES & CREDITS :

   NOAA